Location: Cormont
(50.5693°N, 1.7416°E)
Time: 00:33:57
(UTC+00:00)

STARLINK-66 - Pass Details

Date: 21 October 2019
Orbit: 548 x 551 km, 53.0° (Epoch: 14 November)

Event Time Altitude Azimuth Distance (km) Brightness Sun altitude
Rises 18:44:27 0° 281° (WNW) 2,719 8.8 -18.9°
Reaches altitude 10° 18:46:42 10° 285° (WNW) 1,825 7.5 -19.3°
Maximum altitude 18:50:50 64° 7° (N) 613 3.7 -19.9°
Enters shadow 18:51:36 51° 59° (ENE) 693 3.8 -20.0°
